Погода в Мирном

Россия / Вологодская область     60°50′27″N   37°40′48″E
темп.,
°C
ветер,
м/с
пор.,
м/с
влажн.,
%
обл.,
%
осадки,
мм/ч
давл.,
гПа
погр.,
м
21 июня, пн
пн2100:00+19зсз22690 0.0 101717
03:00+18зюз23765 0.0 101760
06:00+21юз257247 0.0 1018172
09:00+27зюз23535 0.0 1018932
12:00+30зюз24365 0.0 10182173
15:00+32зюз34305 0.0 10172723
18:00+31зюз233236 0.0 10162805
21:00+23ююз12631 0.0 101715
22 июня, вт
вт2200:00+20ююз226198 0.0 101824
03:00+19зюз11716 0.0 101811
06:00+22зюз2566100 0.0 1019153
09:00+27юз23505 0.0 1019601
12:00+31ююз233745 0.0 10181972
15:00+32ю333295 0.0 10182579
18:00+31ююз23375 0.0 10171002
21:00+24ю2661100 0.1 101796
23 июня, ср
ср2300:00+21ю267337 0.1 1018117
03:00+19ююз26790 0.1 1018104
06:00+23юз257135 0.0 1018159
09:00+28юз364694 0.0 1018594
12:00+31юз463598 0.0 10172083
15:00+33юз473213 0.0 10162737
18:00+29ююз23486 0.0 1016120
21:00+26юз25581 0.0 101587
24 июня, чт
чт2400:00+21ссв1177100 0.0 101615
03:00+20ю238188 0.0 101660
06:00+23юз2766100 0.0 1016193
09:00+29юз36434 0.0 1015734
12:00+33юз46335 0.0 10142345
15:00+34юз482974 0.0 10133215
18:00+20зсз31093100 10.8 1015387
21:00+19ююз259861 16.6 1015161
25 июня, пт
пт2500:00+18зсз2599100 0.0 1015143
03:00+16ссз279984 0.0 1015207
06:00+18ссв1496100 0.0 1016417
09:00+18св2291100 0.1 1017381
12:00+21ссв227176 0.1 1018785
15:00+25с134894 0.1 10161805
18:00+22зсз256170 0.1 1016457
21:00+18с247211 0.1 101679